• In Austria
  • List of Countries
  • For 7 days
  • Water Temperature
  • Satellite Maps
  • Weather Map
  • News
  • Weather Widgets
  • user-avatar
    Login

    Hourly Weather Vidin

    Today, 25 February, Sunday

    Time Temperature Precipitation Wind Pressure Humidity
    00:00 -3°C° 0 mm 4 mps 758 mmHg 76%
    01:00 -2°C° 0 mm 3 mps 759 mmHg 77%
    02:00 -4°C° 0 mm 3 mps 759 mmHg 79%
    03:00 -4°C° 0 mm 3 mps 759 mmHg 79%
    04:00 -4°C° 0 mm 3 mps 759 mmHg 79%
    05:00 -4°C° 0 mm 3 mps 760 mmHg 78%
    06:00 -4°C° 0 mm 3 mps 760 mmHg 77%
    07:00 -3°C° 0 mm 2 mps 760 mmHg 77%
    08:00 -3°C° 0 mm 2 mps 760 mmHg 77%
    09:00 -3°C° 0.1 mm 2 mps 760 mmHg 74%
    10:00 -2°C° 0.1 mm 2 mps 760 mmHg 71%
    11:00 -1°C° 0.1 mm 3 mps 761 mmHg 68%
    12:00 -1°C° 0.1 mm 3 mps 760 mmHg 70%
    13:00 -1°C° 0.1 mm 3 mps 760 mmHg 73%
    14:00 -2°C° 0 mm 3 mps 760 mmHg 79%
    15:00 -4°C° 0.6 mm 3 mps 760 mmHg 83%
    16:00 -4°C° 0.6 mm 3 mps 760 mmHg 87%
    17:00 -4°C° 0.6 mm 3 mps 760 mmHg 91%
    18:00 -5°C° 0.5 mm 3 mps 760 mmHg 92%
    19:00 -5°C° 0.5 mm 4 mps 760 mmHg 93%
    20:00 -5°C° 0.5 mm 4 mps 760 mmHg 93%
    21:00 -7°C° 0.4 mm 4 mps 760 mmHg 93%
    22:00 -7°C° 0.4 mm 4 mps 760 mmHg 93%
    23:00 -7°C° 0.4 mm 4 mps 760 mmHg 93%

    Tomorrow, 26 February, Monday

    Time Temperature Precipitation Wind Pressure Humidity
    00:00 -7°C° 0.5 mm 5 mps 760 mmHg 93%
    01:00 -7°C° 0.5 mm 5 mps 759 mmHg 93%
    02:00 -8°C° 0.5 mm 6 mps 759 mmHg 93%
    03:00 -9°C° 0.6 mm 6 mps 759 mmHg 93%
    04:00 -9°C° 0.6 mm 6 mps 758 mmHg 93%
    05:00 -11°C° 0.6 mm 7 mps 758 mmHg 93%
    06:00 -10°C° 0.8 mm 6 mps 758 mmHg 94%
    07:00 -10°C° 0.8 mm 6 mps 758 mmHg 94%
    08:00 -11°C° 0.8 mm 6 mps 758 mmHg 94%
    09:00 -10°C° 0.7 mm 6 mps 757 mmHg 94%
    10:00 -11°C° 0.7 mm 7 mps 757 mmHg 93%
    11:00 -11°C° 0.7 mm 7 mps 757 mmHg 93%
    12:00 -11°C° 0.7 mm 7 mps 757 mmHg 93%
    13:00 -11°C° 0.7 mm 7 mps 756 mmHg 93%
    14:00 -11°C° 0.7 mm 7 mps 756 mmHg 93%
    15:00 -11°C° 0.7 mm 7 mps 756 mmHg 93%
    16:00 -11°C° 0.7 mm 7 mps 756 mmHg 93%
    17:00 -11°C° 0.7 mm 7 mps 755 mmHg 94%
    18:00 -10°C° 0.7 mm 6 mps 756 mmHg 94%
    19:00 -11°C° 0.7 mm 6 mps 756 mmHg 94%
    20:00 -11°C° 0.7 mm 6 mps 756 mmHg 94%
    21:00 -11°C° 0.6 mm 6 mps 756 mmHg 94%
    22:00 -11°C° 0.6 mm 6 mps 755 mmHg 94%
    23:00 -11°C° 0.6 mm 6 mps 755 mmHg 94%

    Day after tomorrow, 27 February, Tuesday

    Time Temperature Precipitation Wind Pressure Humidity
    00:00 -11°C° 0.5 mm 6 mps 755 mmHg 94%
    01:00 -11°C° 0.5 mm 6 mps 755 mmHg 94%
    02:00 -11°C° 0.5 mm 6 mps 754 mmHg 94%
    03:00 -11°C° 0.6 mm 5 mps 754 mmHg 94%
    04:00 -11°C° 0.6 mm 5 mps 754 mmHg 95%
    05:00 -11°C° 0.6 mm 5 mps 754 mmHg 95%
    06:00 -12°C° 0.6 mm 5 mps 754 mmHg 95%
    07:00 -12°C° 0.6 mm 5 mps 754 mmHg 95%
    08:00 -11°C° 0.6 mm 4 mps 754 mmHg 95%
    09:00 -10°C° 0.4 mm 4 mps 754 mmHg 94%
    10:00 -10°C° 0.4 mm 4 mps 755 mmHg 93%
    11:00 -9°C° 0.4 mm 4 mps 755 mmHg 92%
    12:00 -9°C° 0.2 mm 4 mps 755 mmHg 91%
    13:00 -8°C° 0.2 mm 4 mps 754 mmHg 90%
    14:00 -8°C° 0.2 mm 4 mps 754 mmHg 90%
    15:00 -7°C° 0.2 mm 3 mps 755 mmHg 91%
    16:00 -7°C° 0.2 mm 3 mps 755 mmHg 91%
    17:00 -7°C° 0.2 mm 3 mps 755 mmHg 92%
    18:00 -7°C° 0.2 mm 2 mps 756 mmHg 94%
    19:00 -8°C° 0.2 mm 2 mps 757 mmHg 95%
    20:00 -7°C° 0.2 mm 1 mps 757 mmHg 96%
    21:00 -8°C° 0.1 mm 1 mps 758 mmHg 96%
    22:00 -8°C° 0.1 mm 1 mps 758 mmHg 96%
    23:00 -9°C° 0.1 mm 1 mps 759 mmHg 97%

    28 February, Wednesday

    Time Temperature Precipitation Wind Pressure Humidity
    00:00 -9°C° 0.1 mm 1 mps 759 mmHg 97%
    01:00 -9°C° 0.1 mm 1 mps 759 mmHg 97%
    02:00 -9°C° 0.1 mm 1 mps 759 mmHg 97%
    03:00 -9°C° 0.1 mm 1 mps 759 mmHg 97%
    04:00 -9°C° 0.1 mm 1 mps 760 mmHg 96%
    05:00 -10°C° 0.1 mm 1 mps 760 mmHg 96%
    06:00 -10°C° 0.1 mm 1 mps 760 mmHg 96%
    07:00 -12°C° 0.1 mm 2 mps 760 mmHg 96%
    08:00 -12°C° 0.1 mm 2 mps 760 mmHg 96%
    09:00 -10°C° 0.1 mm 2 mps 760 mmHg 94%
    10:00 -9°C° 0.1 mm 2 mps 760 mmHg 93%
    11:00 -8°C° 0.1 mm 2 mps 760 mmHg 91%
    12:00 -8°C° 0.2 mm 2 mps 760 mmHg 90%
    13:00 -6°C° 0.2 mm 1 mps 760 mmHg 89%
    14:00 -4°C° 0.2 mm 1 mps 760 mmHg 88%
    15:00 -4°C° 0.1 mm 1 mps 760 mmHg 89%
    16:00 -4°C° 0.1 mm 1 mps 761 mmHg 90%
    17:00 -4°C° 0.1 mm 1 mps 761 mmHg 90%
    18:00 -6°C° 0 mm 1 mps 762 mmHg 90%
    19:00 -9°C° 0 mm 2 mps 762 mmHg 90%
    20:00 -10°C° 0 mm 2 mps 763 mmHg 90%
    21:00 -10°C° 0 mm 2 mps 763 mmHg 90%
    22:00 -10°C° 0 mm 2 mps 764 mmHg 89%
    23:00 -10°C° 0 mm 2 mps 764 mmHg 88%

    1 March, Thursday

    Time Temperature Precipitation Wind Pressure Humidity
    00:00 -10°C° 0 mm 2 mps 765 mmHg 88%
    01:00 -12°C° 0 mm 2 mps 765 mmHg 88%
    02:00 -12°C° 0 mm 2 mps 765 mmHg 88%
    03:00 -12°C° 0 mm 2 mps 765 mmHg 88%
    04:00 -13°C° 0 mm 2 mps 765 mmHg 88%
    05:00 -13°C° 0 mm 2 mps 765 mmHg 88%
    06:00 -13°C° 0 mm 2 mps 765 mmHg 87%
    07:00 -13°C° 0 mm 2 mps 765 mmHg 87%
    08:00 -11°C° 0 mm 1 mps 765 mmHg 87%
    09:00 -9°C° 0 mm 1 mps 765 mmHg 84%
    10:00 -7°C° 0 mm 1 mps 764 mmHg 82%
    11:00 -5°C° 0 mm 0 mps 764 mmHg 79%
    12:00 -3°C° 0 mm 1 mps 763 mmHg 79%
    13:00 -2°C° 0 mm 1 mps 762 mmHg 79%
    14:00 -1°C° 0 mm 1 mps 762 mmHg 79%
    15:00 -2°C° 0 mm 1 mps 761 mmHg 82%
    16:00 -2°C° 0 mm 1 mps 761 mmHg 86%
    17:00 -2°C° 0 mm 1 mps 761 mmHg 89%
    18:00 -4°C° 0 mm 1 mps 761 mmHg 90%
    19:00 -7°C° 0 mm 1 mps 761 mmHg 90%
    20:00 -8°C° 0 mm 1 mps 761 mmHg 91%
    21:00 -8°C° 0 mm 1 mps 761 mmHg 91%
    22:00 -8°C° 0 mm 1 mps 761 mmHg 91%
    23:00 -8°C° 0 mm 1 mps 761 mmHg 91%

    2 March, Friday

    Time Temperature Precipitation Wind Pressure Humidity
    00:00 -8°C° 0 mm 1 mps 761 mmHg 92%
    01:00 -9°C° 0 mm 1 mps 761 mmHg 92%
    02:00 -9°C° 0 mm 1 mps 761 mmHg 93%
    03:00 -9°C° 0.2 mm 1 mps 760 mmHg 94%
    04:00 -10°C° 0.2 mm 2 mps 760 mmHg 94%
    05:00 -9°C° 0.2 mm 2 mps 759 mmHg 95%
    06:00 -9°C° 0.3 mm 2 mps 759 mmHg 95%
    07:00 -9°C° 0.3 mm 2 mps 759 mmHg 95%
    08:00 -9°C° 0.3 mm 2 mps 759 mmHg 95%
    09:00 -8°C° 0.4 mm 2 mps 759 mmHg 95%
    10:00 -8°C° 0.4 mm 2 mps 758 mmHg 94%
    11:00 -7°C° 0.4 mm 2 mps 758 mmHg 94%
    12:00 -7°C° 0.5 mm 2 mps 757 mmHg 94%
    13:00 -6°C° 0.5 mm 2 mps 757 mmHg 94%
    14:00 -5°C° 0.5 mm 2 mps 756 mmHg 94%
    15:00 -5°C° 0.5 mm 2 mps 756 mmHg 94%
    16:00 -5°C° 0.5 mm 2 mps 756 mmHg 95%
    17:00 -5°C° 0.5 mm 2 mps 756 mmHg 96%
    18:00 -3°C° 0.8 mm 1 mps 756 mmHg 96%
    19:00 -3°C° 0.8 mm 1 mps 756 mmHg 97%
    20:00 -3°C° 0.8 mm 1 mps 756 mmHg 97%
    21:00 -3°C° 0.8 mm 1 mps 755 mmHg 97%
    22:00 -3°C° 0.8 mm 1 mps 755 mmHg 97%
    23:00 -3°C° 0.8 mm 1 mps 755 mmHg 97%
    Show more